Regional Weather Roundup
Issued by NWS Cleveland, OH

Home | Current Version | Previous Version | Graphics & Text | Print | Product List | Glossary On
Versions: 1 2 3 4 5 6 7 8 9 10 11 12 13 14 15 16 17 18 19 20 21 22 23 24 25 26 27 28 29 30 31 32 33 34 35 36 37 38 39 40 41 42 43 44 45 46 47 48 49 50
000
ASUS41 KCLE 021910
RWRCLE
OHIO REGIONAL WEATHER ROUNDUP
NATIONAL WEATHER SERVICE WILMINGTON, OH
300 PM EDT SUN AUG 02 2015

NOTE: "FAIR" INDICATES FEW OR NO CLOUDS BELOW 12,000 FEET WITH NO
SIGNIFICANT WEATHER AND/OR OBSTRUCTIONS TO VISIBILITY.

OHZ001>008-015>018-024>027-034-035-043-044-022000-
   NORTHWEST OHIO

CITY           SKY/WX    TMP DP  RH WIND       PRES   REMARKS
DEFIANCE       SUNNY     90  61  37 SW15G24   29.84F HX  90
FINDLAY        SUNNY     88  62  41 SW15G23   29.87F
TOLEDO EXPRESS SUNNY     87  62  43 SW20G26   29.82F
TOLEDO EXEC    SUNNY     91  59  33 SW23G33   29.83F HX  90
LIMA           SUNNY     87  64  46 SW15      29.90F
$$

OHZ009>014-019>023-028>033-038-089-022000-
   NORTHEAST OHIO

CITY           SKY/WX    TMP DP  RH WIND       PRES   REMARKS
CLE-HOPKINS    MOSUNNY   89  64  43 SW18      29.87F HX  90
CLE-LAKEFRONT  SUNNY     84  68  58 W6        29.84F
CUY CO. ARPT   MOSUNNY   88  63  42 W16       29.87F
LORAIN-ELYRIA  SUNNY     86  64  47 SW16G22   29.87F
ASHTABULA      SUNNY     86  59  39 SW15G21   29.87F
AKRON-CANTON   MOSUNNY   86  65  49 SW15      29.91F
WOOSTER        MOSUNNY   84  66  54 W12       29.91F
MANSFIELD      MOSUNNY   87  65  47 SW13G23   29.92F
YOUNGSTOWN     MOSUNNY   85  63  47 SW10G18   29.90F
$$

OHZ042-051>053-060>062-070>072-077>081-022000-
  SOUTHWEST OHIO

CITY           SKY/WX    TMP DP  RH WIND       PRES   REMARKS
CINC-COVINGTON MOSUNNY   86  62  44 SW8       29.97F
CINC-LUNKEN    SUNNY     85  61  44 S10       29.96F
HAMILTON       SUNNY     87  62  43 SW8       29.96F
DAYTON         MOSUNNY   84  63  49 SW15G23   29.96F
WRIGHT-PAT AFB SUNNY     86  61  42 SW14      29.94F
DAYTON GENERAL SUNNY     85  60  42 SW9       29.96F
WILMINGTON     SUNNY     85  60  42 SW8       29.97F
$$

OHZ036-037-039>041-045>050-054>059-063>069-073>076-082>088-022000-
  CENTRAL AND SOUTHEAST OHIO

CITY           SKY/WX    TMP DP  RH WIND       PRES   REMARKS
COLUMBUS       MOSUNNY   86  60  41 SW12      29.94F
OSU AIRPORT    MOSUNNY   85  62  46 SW12      29.94F
BOLTON FIELD   MOSUNNY   84  64  51 SW12G18   29.96F
RICKENBACK AFB MOSUNNY   85  63  47 SW13      29.95S
NEWARK         MOSUNNY   88  63  43 SW12G18   29.94F
MARION         MOSUNNY   86  62  44 W14G22    29.92F
LANCASTER      MOSUNNY   84  62  47 W10       29.96F
ZANESVILLE     MOSUNNY   85  61  44 SW10      29.95F
NEW PHILLY     MOSUNNY   83  67  58 W7        29.94F
$$


USA.gov is the U.S. government's official web portal to all federal, state and local government web resources and services.